sat.trackr.live / text

‹ back to catalog

STARLINK-32626

NORAD 62123 · 2024-222K

PAYLOAD ACTIVE UNKNOWN

§ Identity

Operator
Country
US
Launch date
2024-11-27
Launch site
AFETR
Launch vehicle
Mass (kg)
RCS (m²)

Purposes: comms

External: N2YO · Heavens-Above · Gunter

§ Orbital elements

Epoch: 2026-05-25T04:09:07.652736Z

Period
94.26 min
Inclination
43.0035°
Eccentricity
0.0001518
Mean motion
15.27609140 rev/d
Perigee alt
481.9 km
Apogee alt
484.0 km
Semi-major
6,861.1 km
B*
8.3285e-4
RAAN
64.4577°
Arg perigee
278.8004°
Mean anomaly
81.2675°
Rev number
8,444

§ Raw data

STARLINK-326261 62123U 24222K   26145.17300524  .00022747  00000+0  83285-3 0  99962 62123  43.0035  64.4577 0001518 278.8004  81.2675 15.27609140 84442

JSON: /api/v1/satellites/62123 · /tle

For live sub-satellite position, see the globe view (requires WebGL).

§ Visibility from observer

Set your observer location to see the next 7 days of passes ≥ 10°. The values pass through the URL so the page stays shareable.

No JS? Fill the form by hand. The geolocation button needs JavaScript.